sat.trackr.live / text

‹ back to catalog

SNAP-3 EDDIE

NORAD 40972 · 2015-058J

PAYLOAD ACTIVE UNKNOWN

§ Identity

Operator
Country
US
Launch date
2015-10-08
Launch site
AFWTR
Launch vehicle
Mass (kg)
RCS (m²)

Purposes: tech_demo

External: N2YO · Heavens-Above · Gunter

§ Orbital elements

Epoch: 2026-05-25T04:38:28.653216Z

Period
92.54 min
Inclination
64.7430°
Eccentricity
0.0033699
Mean motion
15.56043275 rev/d
Perigee alt
376.3 km
Apogee alt
422.0 km
Semi-major
6,777.3 km
B*
1.2064e-3
RAAN
173.9847°
Arg perigee
27.3276°
Mean anomaly
332.9631°
Rev number
11,544

§ Raw data

SNAP-3 EDDIE1 40972U 15058J   26145.19338719  .00087484  00000+0  12064-2 0  99952 40972  64.7430 173.9847 0033699  27.3276 332.9631 15.56043275115444

JSON: /api/v1/satellites/40972 · /tle

For live sub-satellite position, see the globe view (requires WebGL).

§ Visibility from observer

Set your observer location to see the next 7 days of passes ≥ 10°. The values pass through the URL so the page stays shareable.

No JS? Fill the form by hand. The geolocation button needs JavaScript.